Location: Unspecified
(52.4292°N, 19.3359°E)
Time: 15:48:11
(UTC+02:00)

Transit 2A Rocket - Pass Details

Date: 21 May 2024
Orbit: 583 x 910 km, 66.7° (Epoch: 22 June)

Event Time Altitude Azimuth Distance (km) Brightness Sun altitude
Rises 09:43:17 0° 306° (NW) 3,244 7.8 43.3°
Reaches altitude 10° 09:46:18 10° 323° (NW) 2,379 7.3 43.8°
Maximum altitude 09:50:16 20° 10° (N) 1,862 7.1 44.3°
Drops below altitude 10° 09:54:26 10° 55° (NE) 2,517 8.1 44.9°
Sets 09:57:44 0° 72° (ENE) 3,496 8.8 45.3°
